Latest Weather Observations for Point Wilson

IDV60901

Issued at 6:55 am EDT Saturday 1 November 2014 (issued every 10 minutes, with the page automatically refreshed every 10 minutes)

About weather observations | Map of Melbourne area stations | Latest observations for Melbourne area | Other Formats
Station Details ID: 087166 Name: POINT WILSON Lat: -38.10 Lon: 144.54 Height: 18.0 m
Data from the previous 72 hours. | See also: Recent months at Point Wilson
Date/Time
EDT
Tmp

°C
App
Tmp
°C
Dew
Point
°C
Rel
Hum
%
Delta-T

°C
Wind Press
QNH
hPa
Press
MSL
hPa
Rain
since
9 am
mm
Dir
 
Spd
km/h
Gust
km/h
Spd
kts
Gust
kts
01/06:30am - - - - - W 33 43 18 23 - - -
01/06:00am - - - - - W 43 50 23 27 - - -
01/05:51am - - - - - W 32 50 17 27 - - -
01/05:30am - - - - - WNW 24 28 13 15 - - -
01/05:00am - - - - - W 28 37 15 20 - - -
01/04:30am - - - - - WSW 22 28 12 15 - - -
01/04:00am - - - - - NW 17 20 9 11 - - -
01/03:30am - - - - - WNW 20 28 11 15 - - -
01/03:00am - - - - - WSW 20 28 11 15 - - -
01/02:30am - - - - - WSW 22 30 12 16 - - -
01/02:00am - - - - - W 35 44 19 24 - - -
01/01:30am - - - - - WSW 28 41 15 22 - - -
01/01:00am - - - - - WSW 48 69 26 37 - - -
01/12:58am - - - - - W 50 69 27 37 - - -
01/12:30am - - - - - W 50 59 27 32 - - -
01/12:25am - - - - - W 56 59 30 32 - - -
01/12:17am - - - - - W 35 46 19 25 - - -
01/12:00am - - - - - WSW 19 24 10 13 - - -
 
Date/Time
EDT
Tmp

°C
App
Tmp
°C
Dew
Point
°C
Rel
Hum
%
Delta-T

°C
Wind Press
QNH
hPa
Press
MSL
hPa
Rain
since
9 am
mm
Dir
 
Spd
km/h
Gust
km/h
Spd
kts
Gust
kts
31/11:30pm - - - - - WSW 37 48 20 26 - - -
31/11:24pm - - - - - WSW 41 48 22 26 - - -
31/11:00pm - - - - - SSW 26 33 14 18 - - -
31/10:48pm - - - - - SSW 35 44 19 24 - - -
31/10:37pm - - - - - SW 50 69 27 37 - - -
31/10:30pm - - - - - WSW 52 69 28 37 - - -
31/10:28pm - - - - - WSW 57 69 31 37 - - -
31/10:24pm - - - - - WNW 44 59 24 32 - - -
31/10:00pm - - - - - N 24 30 13 16 - - -
31/09:30pm - - - - - N 24 30 13 16 - - -
31/09:00pm - - - - - N 20 22 11 12 - - -
31/08:30pm - - - - - N 22 24 12 13 - - -
31/08:00pm - - - - - N 22 24 12 13 - - -
31/07:30pm - - - - - N 24 26 13 14 - - -
31/07:00pm - - - - - N 28 32 15 17 - - -
31/06:30pm - - - - - NNW 26 32 14 17 - - -
31/06:00pm - - - - - NNW 41 52 22 28 - - -
31/05:30pm - - - - - NNW 37 52 20 28 - - -
31/05:00pm - - - - - NNW 37 48 20 26 - - -
31/04:30pm - - - - - NNW 37 50 20 27 - - -
31/04:00pm - - - - - NNW 39 52 21 28 - - -
31/03:30pm - - - - - NNW 43 59 23 32 - - -
31/03:02pm - - - - - NNW 32 57 17 31 - - -
31/03:00pm - - - - - NNW 30 44 16 24 - - -
31/02:30pm - - - - - N 30 50 16 27 - - -
31/02:29pm - - - - - N 28 50 15 27 - - -
31/02:00pm - - - - - N 30 33 16 18 - - -
31/01:30pm - - - - - N 33 41 18 22 - - -
31/01:00pm - - - - - N 32 37 17 20 - - -
31/12:30pm - - - - - NE 26 32 14 17 - - -
31/12:00pm - - - - - ENE 30 33 16 18 - - -
31/11:30am - - - - - ENE 28 32 15 17 - - -
31/11:00am - - - - - NE 24 26 13 14 - - -
31/10:30am - - - - - NE 19 20 10 11 - - -
31/10:00am - - - - - NE 24 26 13 14 - - -
31/09:30am - - - - - NE 28 30 15 16 - - -
31/09:00am - - - - - NNE 20 24 11 13 - - -
31/08:30am - - - - - NNE 22 24 12 13 - - -
31/08:00am - - - - - NNE 15 17 8 9 - - -
31/07:30am - - - - - N 15 17 8 9 - - -
31/07:00am - - - - - N 15 17 8 9 - - -
31/06:30am - - - - - N 17 19 9 10 - - -
31/06:00am - - - - - N 19 20 10 11 - - -
31/05:30am - - - - - N 19 22 10 12 - - -
31/05:00am - - - - - N 20 24 11 13 - - -
31/04:30am - - - - - N 19 20 10 11 - - -
31/04:00am - - - - - N 15 17 8 9 - - -
31/03:30am - - - - - N 15 17 8 9 - - -
31/03:00am - - - - - N 15 17 8 9 - - -
31/02:30am - - - - - NNW 11 13 6 7 - - -
31/02:00am - - - - - E 9 13 5 7 - - -
31/01:30am - - - - - E 4 9 2 5 - - -
31/01:00am - - - - - ENE 7 9 4 5 - - -
31/12:30am - - - - - ENE 7 9 4 5 - - -
31/12:00am - - - - - ESE 7 9 4 5 - - -
 
Date/Time
EDT
Tmp

°C
App
Tmp
°C
Dew
Point
°C
Rel
Hum
%
Delta-T

°C
Wind Press
QNH
hPa
Press
MSL
hPa
Rain
since
9 am
mm
Dir
 
Spd
km/h
Gust
km/h
Spd
kts
Gust
kts
30/11:30pm - - - - - SE 9 13 5 7 - - -
30/11:00pm - - - - - S 13 17 7 9 - - -
30/10:30pm - - - - - SSE 15 17 8 9 - - -
30/10:00pm - - - - - SSE 17 20 9 11 - - -
30/09:30pm - - - - - SE 13 17 7 9 - - -
30/09:00pm - - - - - SE 15 20 8 11 - - -
30/08:30pm - - - - - SSE 17 22 9 12 - - -
30/08:00pm - - - - - SSE 24 28 13 15 - - -
30/07:30pm - - - - - S 24 28 13 15 - - -
30/07:00pm - - - - - S 24 28 13 15 - - -
30/06:30pm - - - - - S 24 28 13 15 - - -
30/06:00pm - - - - - S 28 32 15 17 - - -
30/05:30pm - - - - - SSE 26 28 14 15 - - -
30/05:00pm - - - - - S 24 28 13 15 - - -
30/04:30pm - - - - - S 22 26 12 14 - - -
30/04:00pm - - - - - SW 20 30 11 16 - - -
30/03:30pm - - - - - SW 22 24 12 13 - - -
30/03:00pm - - - - - SW 19 24 10 13 - - -
30/02:30pm - - - - - SW 19 22 10 12 - - -
30/02:00pm - - - - - SW 20 22 11 12 - - -
30/01:30pm - - - - - SW 17 20 9 11 - - -
30/01:00pm - - - - - SW 19 24 10 13 - - -
30/12:30pm - - - - - SW 20 26 11 14 - - -
30/12:00pm - - - - - WSW 19 24 10 13 - - -
30/11:30am - - - - - WSW 22 26 12 14 - - -
30/11:00am - - - - - WSW 20 28 11 15 - - -
30/10:30am - - - - - W 17 22 9 12 - - -
30/10:00am - - - - - W 17 22 9 12 - - -
30/09:30am - - - - - W 19 20 10 11 - - -
30/09:00am - - - - - W 17 22 9 12 - - -
30/08:30am - - - - - W 20 24 11 13 - - -
30/08:00am - - - - - W 22 28 12 15 - - -
30/07:30am - - - - - WNW 20 26 11 14 - - -
30/07:00am - - - - - WNW 19 24 10 13 - - -
30/06:30am - - - - - W 24 28 13 15 - - -
30/06:00am - - - - - WNW 19 22 10 12 - - -
30/05:30am - - - - - NW 19 20 10 11 - - -
30/05:00am - - - - - WNW 17 20 9 11 - - -
30/04:30am - - - - - WNW 15 19 8 10 - - -
30/04:00am - - - - - NW 17 19 9 10 - - -
30/03:30am - - - - - NW 17 19 9 10 - - -
30/03:00am - - - - - NW 15 19 8 10 - - -
30/02:30am - - - - - WNW 17 20 9 11 - - -
30/02:00am - - - - - NW 17 19 9 10 - - -
30/01:30am - - - - - NW 17 20 9 11 - - -
30/01:00am - - - - - W 24 28 13 15 - - -
30/12:30am - - - - - WNW 19 22 10 12 - - -
30/12:00am - - - - - NW 17 20 9 11 - - -
 
Date/Time
EDT
Tmp

°C
App
Tmp
°C
Dew
Point
°C
Rel
Hum
%
Delta-T

°C
Wind Press
QNH
hPa
Press
MSL
hPa
Rain
since
9 am
mm
Dir
 
Spd
km/h
Gust
km/h
Spd
kts
Gust
kts
29/11:30pm - - - - - NW 15 19 8 10 - - -
29/11:00pm - - - - - NNW 11 15 6 8 - - -
29/10:30pm - - - - - SW 4 9 2 5 - - -
29/10:00pm - - - - - S 6 7 3 4 - - -
29/09:30pm - - - - - SE 9 13 5 7 - - -
29/09:00pm - - - - - SSE 15 19 8 10 - - -
29/08:30pm - - - - - SSE 19 22 10 12 - - -
29/08:00pm - - - - - S 22 28 12 15 - - -
29/07:30pm - - - - - S 26 30 14 16 - - -
29/07:00pm - - - - - SSE 28 33 15 18 - - -
29/06:30pm - - - - - SSE 28 33 15 18 - - -
29/06:00pm - - - - - S 30 33 16 18 - - -
29/05:30pm - - - - - SE 26 30 14 16 - - -
29/05:00pm - - - - - SE 7 13 4 7 - - -
29/04:30pm - - - - - SSE 7 11 4 6 - - -
29/04:00pm - - - - - SSW 15 19 8 10 - - -
29/03:30pm - - - - - SSW 19 20 10 11 - - -
29/03:00pm - - - - - WSW 15 20 8 11 - - -
29/02:30pm - - - - - W 17 28 9 15 - - -
29/02:00pm - - - - - WSW 17 19 9 10 - - -
29/01:30pm - - - - - WSW 11 19 6 10 - - -
29/01:00pm - - - - - WNW 17 24 9 13 - - -
29/12:30pm - - - - - WSW 17 22 9 12 - - -
29/12:00pm - - - - - W 19 30 10 16 - - -
29/11:30am - - - - - W 17 20 9 11 - - -
29/11:00am - - - - - WNW 22 28 12 15 - - -
29/10:30am - - - - - W 24 28 13 15 - - -
29/10:00am - - - - - W 17 20 9 11 - - -
29/09:30am - - - - - W 19 24 10 13 - - -
29/09:00am - - - - - WNW 19 22 10 12 - - -
29/08:30am - - - - - WNW 15 19 8 10 - - -
29/08:00am - - - - - WNW 11 15 6 8 - - -
29/07:30am - - - - - WNW 11 13 6 7 - - -
29/07:00am - - - - - NW 15 19 8 10 - - -

Latest Capital City Observations: Canberra | Sydney | Melbourne | Brisbane | Adelaide | Perth | Hobart | Darwin

Other Formats:

Comma delimited format used in spreadsheet applications
http://www.bom.gov.au/fwo/IDV60901/IDV60901.94847.axf

JavaScript Object Notation format (JSON) in row-major order
http://www.bom.gov.au/fwo/IDV60901/IDV60901.94847.json